Location: Caltech
(34.1382°N, 118.1253°W)
Time: 17:22:15
(UTC-07:00)

NOSS 3-2 (A) - Visible Passes

Search period start: 01 August 2014 00:00
Search period end: 11 August 2014 00:00
Orbit: 945 x 1264 km, 63.4° (Epoch: 25 July)

Date Brightness Start Highest point End Pass type
(mag) Time Alt. Az. Time Alt. Az. Time Alt. Az.
01 Aug 5.1 20:38:25 10° N 20:44:32 27° NE 20:50:28 11° E visible
01 Aug 4.1 22:28:31 10° NW 22:35:59 68° WSW 22:37:52 52° S visible
02 Aug 3.9 21:43:10 10° NNW 21:50:42 79° ENE 21:54:10 37° SE visible
02 Aug 5.7 23:35:59 10° WNW 23:40:58 19° WSW 23:41:35 19° WSW visible
03 Aug 4.3 20:58:01 10° NNW 21:05:16 51° NE 21:10:32 21° ESE visible
03 Aug 5.1 22:49:27 10° NW 22:55:58 32° WSW 22:57:57 28° SW visible
04 Aug 4.8 20:13:04 10° NNW 20:19:41 34° NE 20:26:35 10° ESE visible
04 Aug 4.5 22:03:35 10° NW 22:10:51 52° WSW 22:14:22 32° S visible
05 Aug 4.0 21:18:05 10° NNW 21:25:37 83° WSW 21:30:52 24° SSE visible
05 Aug 6.0 23:12:16 10° WNW 23:15:40 13° WSW 23:18:17 11° SW visible
06 Aug 4.1 20:32:49 10° NNW 20:40:16 65° ENE 20:47:26 13° SE visible
06 Aug 5.6 22:24:54 10° WNW 22:30:44 24° WSW 22:34:52 16° SSW visible
07 Aug 5.0 21:38:45 10° NW 21:45:41 40° WSW 21:51:31 16° S visible
08 Aug 4.3 20:53:04 10° NW 21:00:31 65° WSW 21:08:16 10° SSE visible
09 Aug 4.0 20:07:41 10° NNW 20:15:14 82° ENE 20:23:07 10° SSE visible
09 Aug 6.0 22:00:41 10° WNW 22:05:28 18° WSW 22:10:21 10° SW visible
10 Aug 5.5 21:14:03 10° NW 21:20:29 31° WSW 21:27:07 10° SSW visible
